Location: Newark
(27.9675°N, 86.8869°E)
Time: 11:24:12
(UTC+00:00)

S-56A Canister/Altair - Visible Passes

Search period start: 20 October 2019 00:00
Search period end: 30 October 2019 00:00
Orbit: 633 x 2499 km, 38.9° (Epoch: 18 October)

Date Brightness Start Highest point End Pass type
(mag) Time Alt. Az. Time Alt. Az. Time Alt. Az.
20 Oct 9.1 21:49:40 40° N 21:49:47 40° N 21:58:41 10° ENE visible
20 Oct 9.8 23:48:07 10° WNW 23:56:13 49° NNE 00:08:11 10° E visible
21 Oct 9.5 21:18:48 34° NNE 21:18:48 34° NNE 21:24:58 10° ENE visible
21 Oct 9.7 23:16:14 13° NW 23:23:00 45° NNE 23:34:03 10° E visible
22 Oct 10.2 20:47:57 23° NE 20:47:57 23° NE 20:51:23 10° ENE visible
22 Oct 9.5 22:45:23 22° NW 22:49:52 41° NNE 22:59:57 10° E visible
23 Oct 10.8 20:17:06 13° NE 20:17:06 13° NE 20:17:56 10° NE visible
23 Oct 9.2 22:14:32 32° NNW 22:16:48 38° N 22:25:56 10° ENE visible
24 Oct 9.3 21:43:41 35° N 21:43:48 35° N 21:52:01 10° ENE visible
24 Oct 9.4 23:41:41 10° WNW 23:49:34 63° NNE 00:01:34 10° ESE visible
25 Oct 9.8 21:12:51 29° NE 21:12:51 29° NE 21:18:13 10° ENE visible
25 Oct 9.3 23:10:18 16° NW 23:16:29 57° NNE 23:27:34 10° E visible
26 Oct 10.4 20:42:03 18° NE 20:42:03 18° NE 20:44:33 10° ENE visible
26 Oct 9.2 22:39:29 27° NW 22:43:28 50° NNE 22:53:35 10° E visible
27 Oct 9.0 22:08:41 38° NNW 22:10:31 45° NNE 22:19:39 10° E visible
28 Oct 9.2 21:37:55 40° NNE 21:37:55 40° NNE 21:45:46 10° E visible
28 Oct 8.9 23:35:22 11° WNW 23:42:38 87° SSW 23:54:16 10° ESE visible
29 Oct 9.8 21:07:11 28° NE 21:07:11 28° NE 21:11:59 10° E visible
29 Oct 8.7 23:04:38 22° WNW 23:09:39 85° NNE 23:20:31 10° ESE visible
